Weather History for Warrensburg, MO

Change the Weather History Date:

Sunday, March 17, 2013

  Actual Average (KSZL) Record (KSZL)
Temperature  
Mean Temperature 34 °F -  
Max Temperature 35 °F 52 °F 79 °F (2009)
Min Temperature 32 °F 32 °F 16 °F (2014)
Degree Days  
Heating Degree Days 32    
Moisture  
Dew Point 30 °F    
Average Humidity 88    
Maximum Humidity 93    
Minimum Humidity 75    
Precipitation  
Precipitation 0.15 in - - ()
Sea Level Pressure  
Sea Level Pressure 29.93 in    
Wind  
Wind Speed 12 mph (NE)    
Max Wind Speed 17 mph    
Max Gust Speed 24 mph    
Visibility 9 miles    
Events Rain , Thunderstorm    
Averages and records for this station are not official NWS values.
T = Trace of Precipitation, MM = Missing Value Source: NWS Daily Summary

Daily Weather History Graph

Daily Weather History Graph

Search for Another Location

Airport:

Trip Planner

Search our weather history database for the weather conditions in past years. The results will help you decide how hot, cold, wet, or windy it might be!

Date:

Astronomy

Mar. 17, 2013 Rise Set
Actual Time 7:22 AM CDT 7:24 PM CDT
Civil Twilight 6:56 AM CDT 7:51 PM CDT
Nautical Twilight 6:25 AM CDT 8:22 PM CDT
Astronomical Twilight 5:54 AM CDT 8:53 PM CDT
Moon 10:39 AM CDT (3/17) 12:29 AM CDT (3/17)
Length of Visible Light 12h 54m
Length of Day
12h 01m
Waxing Crescent, 31% of the Moon is Illuminated
Mar 17
Waxing Crescent
Mar 19
First Quarter
Mar 27
Full
Apr 2
Last Quarter
Apr 10
New

Hourly Weather History & Observations

Time (CDT) Temp. Windchill Dew Point Humidity Pressure Visibility Wind Dir Wind Speed Gust Speed Precip Events Conditions
12:35 AM 35.6 °F 27.5 °F 28.4 °F 75% 30.07 in 10.0 mi NNE 11.5 mph - N/A   Overcast
12:55 AM 35.6 °F 26.6 °F 28.4 °F 75% 30.05 in 10.0 mi NNE 13.8 mph 18.4 mph N/A   Overcast
1:35 AM 35.6 °F 26.2 °F 28.4 °F 75% 30.03 in 10.0 mi NNE 15.0 mph 24.2 mph N/A   Overcast
1:55 AM 35.6 °F 27.5 °F 28.4 °F 75% 30.04 in 10.0 mi NNE 11.5 mph 19.6 mph N/A   Overcast
2:15 AM 35.6 °F 27.1 °F 28.4 °F 75% 30.04 in 10.0 mi NNE 12.7 mph 19.6 mph N/A   Overcast
2:35 AM 35.6 °F 27.5 °F 28.4 °F 75% 30.05 in 10.0 mi NNE 11.5 mph - N/A   Overcast
2:55 AM 33.8 °F 25.8 °F 28.4 °F 81% 30.05 in 10.0 mi NNE 10.4 mph 20.7 mph N/A   Overcast
3:15 AM 33.8 °F 24.8 °F 28.4 °F 81% 30.05 in 10.0 mi NNE 12.7 mph 20.7 mph N/A   Overcast
3:35 AM 33.8 °F 25.3 °F 28.4 °F 81% 30.04 in 10.0 mi NNE 11.5 mph 20.7 mph N/A   Overcast
3:55 AM 33.8 °F 23.9 °F 28.4 °F 81% 30.03 in 10.0 mi NNE 15.0 mph 19.6 mph N/A   Overcast
4:15 AM 33.8 °F 24.3 °F 28.4 °F 81% 30.03 in 10.0 mi NNE 13.8 mph 19.6 mph N/A   Overcast
4:35 AM 33.8 °F 23.2 °F 28.4 °F 81% 30.03 in 10.0 mi NNE 17.3 mph 21.9 mph N/A   Overcast
4:55 AM 33.8 °F 23.9 °F 28.4 °F 81% 30.03 in 10.0 mi NE 15.0 mph 20.7 mph N/A   Overcast
5:15 AM 33.8 °F 24.3 °F 28.4 °F 81% 30.02 in 10.0 mi NNE 13.8 mph 18.4 mph N/A   Overcast
5:35 AM 32.0 °F 21.2 °F 28.4 °F 87% 30.03 in 10.0 mi NE 16.1 mph 21.9 mph N/A   Overcast
5:55 AM 32.0 °F 23.0 °F 28.4 °F 87% 30.03 in 10.0 mi NNE 11.5 mph 18.4 mph N/A   Overcast
6:15 AM 32.0 °F 23.0 °F 28.4 °F 87% 30.03 in 10.0 mi NE 11.5 mph - N/A   Overcast
6:35 AM 32.0 °F 23.6 °F 28.4 °F 87% 30.03 in 10.0 mi ENE 10.4 mph 19.6 mph N/A   Overcast
6:55 AM 32.0 °F 21.2 °F 28.4 °F 87% 30.02 in 10.0 mi ENE 16.1 mph 19.6 mph N/A   Overcast
7:35 AM 32.0 °F 24.2 °F 28.4 °F 87% 30.03 in 10.0 mi NE 9.2 mph - N/A   Overcast
7:55 AM 32.0 °F 24.2 °F 28.4 °F 87% 30.03 in 10.0 mi NE 9.2 mph - N/A   Overcast
8:15 AM 32.0 °F 24.2 °F 28.4 °F 87% 30.04 in 10.0 mi NNE 9.2 mph - N/A   Overcast
8:35 AM 32.0 °F 24.2 °F 28.4 °F 87% 30.03 in 10.0 mi NNE 9.2 mph - N/A   Overcast
8:55 AM 32.0 °F 23.0 °F 28.4 °F 87% 30.02 in 10.0 mi NNE 11.5 mph - N/A   Overcast
9:35 AM 32.0 °F 23.6 °F 28.4 °F 87% 30.02 in 10.0 mi NNE 10.4 mph - N/A   Overcast
9:55 AM 32.0 °F 23.0 °F 30.2 °F 93% 30.02 in 10.0 mi NE 11.5 mph 16.1 mph N/A   Overcast
10:15 AM 33.8 °F 26.4 °F 30.2 °F 87% 30.03 in 10.0 mi NE 9.2 mph - N/A   Overcast
10:55 AM 33.8 °F 25.8 °F 30.2 °F 87% 30.02 in 10.0 mi NE 10.4 mph - N/A   Overcast
11:15 AM 33.8 °F 24.8 °F 30.2 °F 87% 30.00 in 10.0 mi NE 12.7 mph - N/A   Overcast
11:35 AM 33.8 °F 24.3 °F 30.2 °F 87% 29.99 in 10.0 mi ENE 13.8 mph - N/A   Overcast
11:55 AM 33.8 °F 23.2 °F 30.2 °F 87% 29.98 in 10.0 mi ENE 17.3 mph - N/A   Overcast
12:15 PM 33.8 °F 25.8 °F 32.0 °F 93% 29.99 in 10.0 mi ENE 10.4 mph 17.3 mph N/A   Light Drizzle
12:35 PM 33.8 °F 25.3 °F 32.0 °F 93% 29.98 in 7.0 mi NE 11.5 mph - N/A Rain Rain
12:55 PM 33.8 °F 25.8 °F 32.0 °F 93% 29.96 in 5.0 mi NE 10.4 mph - N/A Rain Light Rain
1:15 PM 33.8 °F 26.4 °F 32.0 °F 93% 29.96 in 7.0 mi NE 9.2 mph - N/A Rain Light Rain
1:35 PM 33.8 °F 25.8 °F 32.0 °F 93% 29.94 in 7.0 mi NE 10.4 mph 17.3 mph 0.01 in Rain Rain
1:55 PM 33.8 °F 23.5 °F 32.0 °F 93% 29.91 in 7.0 mi ENE 16.1 mph 19.6 mph 0.02 in Rain Rain
2:15 PM 33.8 °F 25.8 °F 32.0 °F 93% 29.91 in 10.0 mi NE 10.4 mph - N/A   Light Drizzle
2:35 PM 33.8 °F 24.3 °F 32.0 °F 93% 29.89 in 7.0 mi NE 13.8 mph - N/A   Drizzle
2:55 PM 33.8 °F 25.8 °F 32.0 °F 93% 29.89 in 7.0 mi NE 10.4 mph - 0.01 in   Light Drizzle
3:15 PM 33.8 °F 26.4 °F 32.0 °F 93% 29.86 in 10.0 mi NE 9.2 mph - N/A   Overcast
3:35 PM 33.8 °F 24.8 °F 32.0 °F 93% 29.86 in 7.0 mi NE 12.7 mph - N/A   Overcast
3:55 PM 33.8 °F 24.3 °F 32.0 °F 93% 29.85 in 10.0 mi NE 13.8 mph - N/A   Overcast
4:15 PM 33.8 °F 26.4 °F 32.0 °F 93% 29.85 in 10.0 mi NE 9.2 mph - N/A   Light Drizzle
4:55 PM 33.8 °F 24.8 °F 32.0 °F 93% 29.83 in 10.0 mi NE 12.7 mph 19.6 mph N/A   Overcast
5:15 PM 33.8 °F 24.3 °F 32.0 °F 93% 29.81 in 10.0 mi NE 13.8 mph 18.4 mph N/A   Overcast
5:35 PM 33.8 °F 25.3 °F 32.0 °F 93% 29.80 in 10.0 mi NE 11.5 mph - N/A Thunderstorm Overcast
5:55 PM 33.8 °F 24.8 °F 32.0 °F 93% 29.80 in 7.0 mi NE 12.7 mph 17.3 mph N/A Rain Light Rain
6:15 PM 33.8 °F 25.3 °F 32.0 °F 93% 29.82 in 10.0 mi NE 11.5 mph - N/A Thunderstorm Unknown
6:35 PM 33.8 °F 25.8 °F 32.0 °F 93% 29.82 in 10.0 mi NNE 10.4 mph - N/A   Overcast
6:55 PM 33.8 °F 24.8 °F 32.0 °F 93% 29.82 in 10.0 mi NE 12.7 mph 16.1 mph N/A Thunderstorm Drizzle
7:15 PM 33.8 °F 23.5 °F 32.0 °F 93% 29.80 in 4.0 mi NE 16.1 mph 21.9 mph 0.01 in Rain Rain
7:35 PM 33.8 °F 26.4 °F 32.0 °F 93% 29.81 in 5.0 mi NE 9.2 mph 19.6 mph 0.05 in Rain Light Rain
7:55 PM 33.8 °F 25.3 °F 32.0 °F 93% 29.80 in 4.0 mi ENE 11.5 mph 16.1 mph 0.08 in Rain Light Rain
8:15 PM 33.8 °F 23.9 °F 32.0 °F 93% 29.79 in 5.0 mi ENE 15.0 mph - 0.02 in Rain Light Rain
8:35 PM 33.8 °F 24.8 °F 32.0 °F 93% 29.78 in 7.0 mi ENE 12.7 mph - 0.04 in Rain Light Rain
8:55 PM 33.8 °F 24.3 °F 32.0 °F 93% 29.78 in 7.0 mi ENE 13.8 mph - 0.04 in   Light Drizzle
9:15 PM 33.8 °F 24.3 °F 32.0 °F 93% 29.77 in 10.0 mi ENE 13.8 mph 18.4 mph N/A   Overcast
9:55 PM 33.8 °F 24.8 °F 32.0 °F 93% 29.77 in 10.0 mi East 12.7 mph - N/A   Overcast
10:15 PM 33.8 °F 25.8 °F 32.0 °F 93% 29.77 in 7.0 mi East 10.4 mph - N/A   Overcast
10:35 PM 33.8 °F 25.3 °F 32.0 °F 93% 29.77 in 7.0 mi East 11.5 mph 17.3 mph N/A   Overcast
10:55 PM 33.8 °F 27.0 °F 32.0 °F 93% 29.77 in 10.0 mi East 8.1 mph - N/A   Overcast
11:15 PM 33.8 °F 28.6 °F 32.0 °F 93% 29.77 in 10.0 mi ENE 5.8 mph - N/A   Overcast
11:35 PM 33.8 °F 29.6 °F 32.0 °F 93% 29.77 in 5.0 mi ENE 4.6 mph - N/A   Overcast
11:55 PM 33.8 °F 27.7 °F 32.0 °F 93% 29.75 in 5.0 mi ENE 6.9 mph - N/A   Overcast